Location: Cottbus
(51.7000°N, 14.3000°E)
Time: 20:05:24
(UTC+02:00)

ISS - Visible Passes

Search period start: 17 July 2025 00:00
Search period end: 27 July 2025 00:00
Orbit: 415 x 418 km, 51.6° (Epoch: 17 July)

Date Brightness Start Highest point End Pass type
(mag) Time Alt. Az. Time Alt. Az. Time Alt. Az.
17 Jul -2.8 00:22:39 10° W 00:25:24 31° SW 00:25:24 31° SW visible
17 Jul -3.8 21:57:29 10° W 22:00:51 90° SSE 22:04:13 10° E visible
17 Jul -3.4 23:34:16 10° W 23:37:29 44° SSW 23:38:30 32° SSE visible
18 Jul -3.6 22:45:56 10° W 22:49:14 58° SSW 22:51:38 17° ESE visible
19 Jul -1.6 00:23:14 10° W 00:24:31 15° WSW 00:24:31 15° WSW visible
19 Jul -3.8 21:57:36 10° W 22:00:56 72° SSW 22:04:17 10° ESE visible
19 Jul -2.4 23:34:35 10° W 23:37:21 24° SSW 23:37:41 24° SSW visible
20 Jul -2.8 22:46:05 10° W 22:49:09 33° SSW 22:50:54 20° SSE visible
21 Jul -3.2 21:57:41 10° W 22:00:54 45° SSW 22:04:07 10° SE visible
21 Jul -1.4 23:35:35 10° WSW 23:37:00 12° SW 23:37:00 12° SW visible
22 Jul -1.8 22:46:32 10° W 22:48:53 18° SW 22:50:17 14° S visible
23 Jul -2.3 21:57:51 10° W 22:00:41 25° SSW 22:03:30 10° SSE visible
25 Jul -1.3 21:58:39 10° WSW 22:00:16 13° SW 22:01:52 10° SSW visible
